Location: The Saddle
(36.8333°N, 80.3417°W)
Time: 13:36:08
(UTC-04:00)

Courier 1B - Pass Details

Date: 18 September 2024
Orbit: 962 x 1208 km, 28.3° (Epoch: 06 October)

Event Time Altitude Azimuth Distance (km) Brightness Sun altitude
Rises 11:46:35 0° 200° (SSW) 3,679 10.8 49.2°
Reaches altitude 10° 11:51:23 10° 169° (S) 2,782 10.7 49.7°
Maximum altitude 11:53:34 12° 150° (SSE) 2,687 10.8 49.9°
Drops below altitude 10° 11:55:47 10° 131° (SE) 2,839 10.8 50.2°
Sets 12:00:48 0° 101° (E) 3,865 11.0 50.7°
